[[{"header":{"parameterUnit":"m.s-1","parameterCategory":1,"la1":30.2991,"la2":30.254,"lo1":-89.0895,"lo2":-89.0444,"dy":0.0017,"dx":0.0017,"nx":28,"ny":28,"refTime":"2025-06-13T09:00:00:Z","depth":0,"parameterNumber":2,"parameterNumberName":"U-component_of_WINDS"},"data":[0,0,0,0,0,0,0,0,0,0,0,0,0,0,0,0,0,0,0,0,0,0,0,0,0,0,0,0,0,0,0,0,0,0,0,0,0,0,0,0,0,0,0,0,0,0,0,0,0,0,0,0,0,0,0,0,0,0,1.1561,1.1562,0,1.1618,1.1619,1.162,1.1607,1.1606,1.1604,1.1603,1.166,1.1662,1.1665,0,0,0,0,0,0,0,0,0,0,0,0,0,1.1439,1.1441,1.1561,1.1562,1.1563,1.1618,1.1619,1.162,1.1607,1.1606,1.1604,1.1603,1.1659,1.1662,1.1665,0,0,0,0,0,0,0,0,0,0,0,0,0,1.1493,1.1442,1.1561,1.1563,1.1564,1.1618,1.1619,1.162,1.1607,1.1605,1.1604,1.1602,1.1658,1.1662,1.1665,1.1721,0,0,1.1677,1.1678,0,0,0,0,0,0,0,0,1.149,1.1498,1.1562,1.1563,1.1564,1.1604,1.1596,1.1654,1.1607,1.1591,1.1603,1.1602,1.1642,1.1647,1.1661,1.1723,1.1726,1.1677,1.1679,1.1681,1.1682,0,0,0,0,0,0,0,1.1487,1.1495,1.1584,1.1563,1.1564,1.156,1.1566,1.1607,1.1625,1.1592,1.1591,1.1598,1.1642,1.1658,1.1663,1.1727,1.1677,1.168,1.1683,1.1684,1.1836,1.1837,0,0,0,0,0,0,1.1482,1.1492,1.1582,1.1586,1.1522,1.1564,1.157,1.1593,1.1624,1.1628,1.1599,1.1597,1.1652,1.1658,1.1665,1.173,1.1681,1.1684,1.1687,1.1834,1.1836,1.1838,0,0,0,0,0,0,1.148,1.149,1.158,1.1539,1.155,1.1568,1.1593,1.1595,1.161,1.163,1.1633,1.1612,1.1651,1.1659,1.1707,1.1732,1.1686,1.169,1.1832,1.1834,1.1837,1.1863,0,0,0,0,0,0,1.1476,1.149,1.1511,1.1539,1.1552,1.1622,1.1594,1.1597,1.1617,1.1614,1.1643,1.1646,1.165,1.1701,1.171,1.1736,1.1692,1.1829,1.1833,1.1836,1.186,1.1866,1.1872,0,0,0,0,0,1.1472,1.1516,1.1513,1.1524,1.158,1.1623,1.163,1.1636,1.1619,1.164,1.1653,1.1645,1.1728,1.1706,1.1716,1.1744,1.1828,1.1832,1.1836,1.1857,1.1865,1.1872,0,0,0,0,0,0,1.149,1.152,1.1516,1.1571,1.1595,1.1621,1.1648,1.1644,1.1672,1.1669,1.1674,1.168,1.1728,1.1741,1.1716,1.1799,1.1775,1.1782,1.1788,1.1796,1.1802,1.1797,1.1696,0,0,0,0,0,1.1501,1.1534,1.1558,1.1605,1.1617,1.1631,1.165,1.1652,1.1676,1.1686,1.1702,1.1725,1.1757,1.1777,1.1807,1.1862,1.1867,1.1886,1.1892,1.1897,1.1902,1.193,1.1939,1.1851,1.1851,1.1851,0,0,1.1523,1.1543,1.1564,1.1609,1.1627,1.1661,1.1639,1.1676,1.17,1.1691,1.1737,1.175,1.1776,1.1827,1.185,1.1839,1.1927,1.1902,1.1906,1.1908,1.1935,1.1944,1.1951,1.1854,1.1853,1.1853,0,0,1.1579,1.1599,1.1639,1.1658,1.1687,1.1696,1.1705,1.1732,1.174,1.1787,1.178,1.1809,1.1864,1.1882,1.1899,1.1962,1.1955,1.1972,1.2002,1.203,1.2037,1.2043,1.2064,1.2072,1.1977,1.1977,1.1977,0,1.1602,1.1654,1.166,1.1697,1.1716,1.1711,1.175,1.1768,1.1805,1.1818,1.1805,1.1873,1.189,1.1945,1.196,1.1975,1.1985,1.1968,1.2036,1.2042,1.2047,1.2068,1.2076,1.1979,1.1979,1.1979,1.1978,0,1.168,1.1716,1.1744,1.178,1.1803,1.1841,1.1852,1.1875,1.1875,1.1885,1.1931,1.1952,1.1985,1.1999,1.1999,1.2054,1.2046,1.2034,1.2011,1.2057,1.2076,1.2084,1.1981,1.1981,1.198,1.198,0,0,1.1749,1.1788,1.1798,1.1814,1.1845,1.1872,1.191,1.1944,1.1962,1.1988,1.2018,1.2064,1.2054,1.2073,1.2075,1.21,1.2147,1.2085,1.2086,1.2095,1.2206,1.2213,1.2222,1.2143,1.2145,1.2146,1.2204,0,1.1807,1.1874,1.1881,1.194,1.1972,1.1967,1.2,1.2022,1.2033,1.2061,1.2072,1.2104,1.2089,1.21,1.2124,1.2136,1.2169,1.2132,1.217,1.2172,1.2162,1.2233,1.2241,1.2294,1.2211,1.2213,1.2213,0,1.1884,1.1912,1.1975,1.2001,1.2014,1.2044,1.2074,1.2102,1.2127,1.2132,1.2153,1.2153,1.219,1.2167,1.2218,1.2192,1.2209,1.2217,1.2219,1.2222,1.2194,1.2235,1.2311,1.2319,1.2226,1.2225,1.2224,0,1.1925,1.1979,1.2023,1.2037,1.2069,1.209,1.2104,1.2127,1.2147,1.2174,1.2186,1.2217,1.2233,1.2257,1.2264,1.2246,1.2314,1.2291,1.2319,1.2318,1.2332,1.2331,1.241,1.2345,1.2345,1.2345,1.2345,0,1.1989,1.2027,1.2043,1.207,1.2112,1.2119,1.2161,1.2174,1.2194,1.2223,1.2221,1.2248,1.2256,1.2284,1.229,1.2331,1.2339,1.2343,1.2344,1.2343,1.2342,1.2352,1.2348,1.2347,1.2346,1.2346,1.2346,0,1.2042,1.2054,1.2102,1.2128,1.2136,1.2166,1.2188,1.2214,1.2224,1.226,1.2269,1.2285,1.2318,1.2327,1.2367,1.2371,1.2418,1.2416,1.241,1.2409,1.2436,1.2432,1.2523,1.2534,1.2463,1.2464,1.2465,0,1.208,1.211,1.214,1.2159,1.2174,1.2206,1.2226,1.2234,1.2254,1.2284,1.2306,1.2339,1.2365,1.2418,1.2432,1.2462,1.246,1.249,1.2464,1.2462,1.2458,1.2456,1.2458,1.2494,1.2494,1.2495,1.2496,0,1.2147,1.2152,1.2181,1.2213,1.2237,1.2262,1.2286,1.2302,1.2313,1.2336,1.237,1.2391,1.2431,1.2463,1.2493,1.2507,1.2503,1.2504,1.2511,1.2509,1.2504,1.2505,1.2421,1.2501,1.2501,1.25,1.25,1.25,1.2193,1.2219,1.2244,1.2276,1.2295,1.2318,1.2343,1.2356,1.2385,1.2419,1.2422,1.2458,1.2481,1.2522,1.2537,1.2565,1.2556,1.2568,1.257,1.2572,1.2574,1.2501,1.2571,1.257,1.257,1.257,1.257,0,1.2259,1.2275,1.2305,1.2338,1.2364,1.2359,1.2385,1.2406,1.2438,1.2461,1.2487,1.2526,1.2557,1.2574,1.2604,1.2623,1.2622,1.2631,1.2628,1.2631,1.2581,1.257,1.2631,1.2631,1.2631,1.2631,1.2631,1.2631,1.2296,1.2338,1.2346,1.2397,1.2413,1.2449,1.2464,1.2484,1.2502,1.2545,1.2571,1.2582,1.2602,1.2634,1.2662,1.2666,1.2677,1.2687,1.2689,1.2641,1.2635,1.2629,1.2619,1.2689,1.2689,1.2738,1.2738,1.2738]},{"header":{"parameterUnit":"m.s-1","parameterCategory":1,"la1":30.2991,"la2":30.254,"lo1":-89.0895,"lo2":-89.0444,"dy":0.0017,"dx":0.0017,"nx":28,"ny":28,"refTime":"2025-06-13T09:00:00:Z","depth":0,"parameterNumber":3,"parameterNumberName":"V-component_of_WINDS"},"data":[0,0,0,0,0,0,0,0,0,0,0,0,0,0,0,0,0,0,0,0,0,0,0,0,0,0,0,0,0,0,0,0,0,0,0,0,0,0,0,0,0,0,0,0,0,0,0,0,0,0,0,0,0,0,0,0,0,0,2.582,2.5821,0,2.5902,2.5903,2.5904,2.588,2.5878,2.5876,2.5874,2.5958,2.5962,2.5966,0,0,0,0,0,0,0,0,0,0,0,0,0,2.564,2.5643,2.582,2.5821,2.5822,2.5902,2.5903,2.5904,2.588,2.5878,2.5876,2.5874,2.5957,2.5961,2.5966,0,0,0,0,0,0,0,0,0,0,0,0,0,2.5719,2.5644,2.582,2.5819,2.582,2.5902,2.5903,2.5905,2.588,2.5878,2.5875,2.5873,2.5955,2.5961,2.5967,2.6054,0,0,2.5984,2.5987,0,0,0,0,0,0,0,0,2.5715,2.5726,2.5818,2.5819,2.582,2.5878,2.587,2.5955,2.5881,2.5857,2.5874,2.5871,2.5934,2.5941,2.5962,2.6057,2.6061,2.5985,2.5988,2.5991,2.5992,0,0,0,0,0,0,0,2.5709,2.5722,2.5852,2.582,2.5821,2.5814,2.5823,2.5886,2.5909,2.5859,2.5858,2.5868,2.5934,2.5957,2.5964,2.6062,2.5985,2.599,2.5993,2.5995,2.6231,2.6233,0,0,0,0,0,0,2.5703,2.5718,2.585,2.5855,2.576,2.582,2.5829,2.5862,2.5908,2.5913,2.587,2.5866,2.5948,2.5957,2.5967,2.607,2.5991,2.5996,2.5999,2.6228,2.6231,2.6234,0,0,0,0,0,0,2.57,2.5715,2.5846,2.5786,2.5802,2.5826,2.5863,2.5865,2.5888,2.5916,2.592,2.5889,2.5946,2.5959,2.6032,2.6072,2.5999,2.6004,2.6225,2.6229,2.6233,2.6278,0,0,0,0,0,0,2.5694,2.5714,2.5748,2.5787,2.5806,2.5911,2.5865,2.5869,2.5898,2.5894,2.5935,2.594,2.5945,2.6023,2.6037,2.6079,2.6008,2.6221,2.6227,2.6232,2.6273,2.6283,2.6292,0,0,0,0,0,2.5688,2.5758,2.575,2.5766,2.5848,2.5913,2.5924,2.5929,2.5901,2.5935,2.5953,2.5938,2.6066,2.6031,2.6047,2.6091,2.6219,2.6225,2.6231,2.6269,2.6281,2.6292,0,0,0,0,0,0,2.5723,2.5763,2.5755,2.5839,2.5873,2.5909,2.5952,2.5943,2.5985,2.598,2.5984,2.5993,2.6068,2.6087,2.6047,2.6176,2.6138,2.6148,2.6161,2.6173,2.6183,2.6176,2.6013,0,0,0,0,0,2.5741,2.579,2.5822,2.5894,2.5911,2.5929,2.5957,2.5958,2.5993,2.6008,2.6031,2.6065,2.6113,2.6144,2.619,2.6276,2.6283,2.6313,2.6323,2.6331,2.6339,2.6384,2.6397,2.6255,2.6255,2.6255,0,0,2.5777,2.5805,2.5836,2.5901,2.5928,2.5978,2.5941,2.5997,2.6034,2.6016,2.6086,2.6104,2.6143,2.6222,2.6258,2.624,2.638,2.6339,2.6345,2.6349,2.6392,2.6405,2.6417,2.626,2.6259,2.6258,0,0,2.587,2.5897,2.5958,2.5985,2.6025,2.6036,2.6051,2.6088,2.61,2.617,2.6157,2.6201,2.6284,2.6311,2.6336,2.6437,2.6425,2.6452,2.6501,2.6545,2.6556,2.6566,2.6601,2.6613,2.646,2.646,2.646,0,2.591,2.5987,2.5991,2.6047,2.6075,2.6061,2.6123,2.6149,2.6202,2.6221,2.62,2.6302,2.6327,2.6412,2.6436,2.6457,2.6473,2.6447,2.6554,2.6564,2.6574,2.6607,2.662,2.6463,2.6463,2.6462,2.6462,0,2.6034,2.6087,2.6131,2.6182,2.6216,2.6275,2.6287,2.632,2.6317,2.633,2.6401,2.6431,2.6481,2.6501,2.65,2.6586,2.6573,2.6553,2.6515,2.659,2.6621,2.6634,2.6467,2.6466,2.6465,2.6465,0,0,2.6151,2.6203,2.6219,2.6241,2.6284,2.6325,2.6382,2.6431,2.6459,2.6496,2.6543,2.6612,2.6594,2.6622,2.6623,2.6662,2.6738,2.6637,2.6638,2.6654,2.6832,2.6846,2.6861,2.673,2.6733,2.6735,2.6828,0,2.6246,2.6347,2.6352,2.6444,2.6492,2.6478,2.6528,2.6559,2.6572,2.6614,2.6629,2.6677,2.665,2.6667,2.6704,2.6721,2.6774,2.6714,2.6773,2.6775,2.6763,2.6877,2.6892,2.698,2.6841,2.6843,2.6844,0,2.6371,2.6411,2.6507,2.6542,2.6562,2.6607,2.6651,2.6692,2.6726,2.6733,2.6764,2.6759,2.6817,2.6777,2.6855,2.6814,2.6839,2.685,2.6854,2.6859,2.6814,2.6884,2.7008,2.702,2.6864,2.6862,2.6861,0,2.6445,2.6523,2.6591,2.661,2.6652,2.6684,2.6703,2.6734,2.6763,2.6802,2.682,2.6865,2.689,2.6924,2.6931,2.6902,2.7009,2.697,2.7015,2.7015,2.7038,2.7036,2.7166,2.7055,2.7055,2.7055,2.7055,0,2.6551,2.661,2.6624,2.6666,2.6731,2.6735,2.68,2.6816,2.6844,2.6888,2.6879,2.692,2.6927,2.697,2.6975,2.7038,2.705,2.7056,2.7057,2.7057,2.7056,2.7072,2.7066,2.7058,2.7058,2.7057,2.7056,0,2.6645,2.6657,2.6729,2.6762,2.6772,2.6819,2.6847,2.6886,2.6898,2.6953,2.6966,2.6984,2.7033,2.7044,2.7102,2.7106,2.718,2.7176,2.7169,2.7168,2.7212,2.7207,2.7356,2.7375,2.7253,2.7254,2.7255,0,2.6711,2.6756,2.6793,2.6822,2.6842,2.6888,2.6917,2.6923,2.6953,2.6995,2.7028,2.7076,2.7115,2.7194,2.7212,2.7256,2.7251,2.73,2.7258,2.7256,2.7251,2.7248,2.7251,2.7308,2.731,2.7311,2.7312,0,2.6826,2.6829,2.6871,2.6915,2.695,2.6985,2.7018,2.7042,2.7052,2.7086,2.7136,2.7166,2.7225,2.7272,2.7316,2.7334,2.7324,2.7325,2.7337,2.7337,2.7331,2.7334,2.719,2.7321,2.732,2.732,2.7319,2.7319,2.6907,2.6946,2.6978,2.7025,2.705,2.7081,2.7119,2.7135,2.7177,2.7225,2.7226,2.728,2.7311,2.7369,2.739,2.7432,2.7416,2.7435,2.7439,2.7444,2.7447,2.7325,2.744,2.744,2.7439,2.7439,2.7439,0,2.7021,2.7041,2.7084,2.713,2.7166,2.7154,2.7189,2.722,2.7268,2.7299,2.7337,2.7393,2.7438,2.746,2.7504,2.7533,2.753,2.7545,2.7542,2.7546,2.7459,2.7443,2.7547,2.7547,2.7547,2.7547,2.7547,2.7547,2.7084,2.7149,2.7156,2.7232,2.7251,2.7304,2.7325,2.7353,2.7377,2.7441,2.7478,2.7492,2.7518,2.7564,2.7605,2.7609,2.7626,2.7643,2.7645,2.7564,2.7553,2.7542,2.7527,2.7647,2.7647,2.7729,2.773,2.773]}]]